Regional Weather Roundup
Issued by NWS

Home | Current Version | Previous Version | Text Only | Print | Product List | Glossary Off
Versions: 1 2 3 4 5 6 7 8 9 10 11 12 13 14 15 16 17 18 19 20 21 22 23 24 25 26 27 28 29 30 31 32 33 34 35 36 37 38 39 40 41 42 43 44 45 46 47 48 49 50

000
ASUS45 KTFX 250704
RWRMT
MONTANA HOURLY WEATHER ROUNDUP
NATIONAL WEATHER SERVICE GREAT FALLS MT
104 AM MDT SAT OCT 25 2014

NOTE: "FAIR" INDICATES FEW OR NO CLOUDS BELOW 12000 FEET WITH NO
SIGNIFICANT WEATHER AND/OR OBSTRUCTIONS TO VISIBILITY.

* THESE STATIONS ARE NOT UNDER NWS QUALITY CONTROL. THEY DO NOT
   REPORT WEATHER SUCH AS PRECIPITATION OR FOG.

MTZ001>007-043-250800-
WEST OF THE DIVIDE
CITY           SKY/WX    TMP DP  RH WIND       PRES   REMARKS
KALISPELL      LGT RAIN  43  41  93 CALM      30.05S
MISSOULA       FOG       45  45 100 SE6       30.06F
BUTTE          MOCLDY    36  34  92 CALM      30.11F
MULLAN PASS    FOG       36  36 100 S10G18    30.00F VSB M1/4 WCI  29
* ESSEX        N/A       39  38  96 S1         N/A
* LINCOLN      N/A       36  35  96 E1         N/A
* LOOKOUT PASS N/A       41  41 100 S7         N/A
* POLSON       N/A       42  42 100 NE1        N/A
* RONAN APT    CLOUDY    43  41  93 N/A        N/A
* SEELEY LAKE  N/A       38  37  96 N/A        N/A
* THOMP F APT  CLOUDY    46  24  42 NE5        N/A
$$

MTZ008-052>055-250800-
SOUTHWEST MONTANA
CITY           SKY/WX    TMP DP  RH WIND       PRES   REMARKS
BOZEMAN        MOCLDY    36  34  92 S6        30.11S WCI  31
DILLON         MOCLDY    36  34  92 E6        30.10F WCI  31
W YELLOWSTONE  PTCLDY    32  27  82 W3        30.21R
* THREE FORKS  CLOUDY    36  16  44 N/A        N/A
* BOULDER HILL N/A       39  36  89 SW11       N/A   WCI  32
* MONIDA PASS  N/A       47  24  40 S12        N/A
* RAYNOLDS PAS N/A       42  25  51 S9         N/A
* WHITEHALL    N/A       37  36  96 N3         N/A
* WISE RIVER   N/A       36  35  96 SW1        N/A
$$

MTZ009>010-012-014-046-048-049-054-250800-
EAST SLOPES AND CENTRAL MONTANA
CITY           SKY/WX    TMP DP  RH WIND       PRES   REMARKS
CUT BANK       CLOUDY    45  32  60 S3        30.06S
GREAT FALLS    CLOUDY    45  39  80 SE6       30.06S
HELENA         PTCLDY    43  37  79 CALM      30.07S
* CONRAD       CLOUDY    46  36  68 N/A        N/A
* DEARBORN     N/A       44  40  86 S2         N/A
* EAST GLACIER N/A       41  31  68 SW10G15    N/A
* MONARCH      N/A       39  34  82 SE2        N/A
* PENDROY      N/A       43  33  68 E8         N/A
* ROGERS PASS  N/A       38  34  86 NW5        N/A   WCI  34
* SAINT MARY   N/A       38  32  79 SE2        N/A
* SWEET GRASS  N/A       42  29  60 E2         N/A
$$

MTZ011-013-016-021-035-040-045-047-050-051-250800-
NORTH CENTRAL MONTANA
CITY           SKY/WX    TMP DP  RH WIND       PRES   REMARKS
HAVRE          CLOUDY    41  32  70 N5        30.08S
LEWISTOWN      PTCLDY    41  37  86 SE3       30.10F
* CHESTER      N/A       39  31  73 N/A        N/A
* DENTON       N/A       41  40  96 S9         N/A
* GEYSER       N/A       41  40  96 N4         N/A
* JUDITH GAP   N/A       38  37  96 S4         N/A
* LOMA         N/A       47  35  63 NE4        N/A
$$

MTZ017>020-022>027-061-062-250800-
NORTHEAST MONTANA
CITY           SKY/WX    TMP DP  RH WIND       PRES   REMARKS
GLASGOW        CLOUDY    45  28  51 CALM      30.09R
GLENDIVE       CLOUDY    45  34  65 CALM      30.13R
JORDAN         CLOUDY    43  34  71 W3        30.10S
SIDNEY         CLOUDY    43  32  65 CALM      30.10S
WOLF POINT     CLOUDY    41  32  70 SW6       30.10R
* BEAVER HILL  N/A       48  30  50 SW3        N/A
* CIRCLE       N/A       41  34  76 N/A        N/A
* LINDSAY DVD  N/A       45  31  58 W2         N/A
* NAVAJO       N/A       41  27  58 NW12       N/A
* SACO         N/A       43  34  71 S6         N/A
$$

MTZ028>042-056>058-250800-
SOUTHCENTRAL AND SOUTHEAST MONTANA
CITY           SKY/WX    TMP DP  RH WIND       PRES   REMARKS
BAKER          PTCLDY    39  32  76 CALM      30.12F
BILLINGS       CLEAR     45  34  65 N6        30.10S
LIVINGSTON     PTCLDY    37  34  89 CALM      30.11S
MILES CITY     PTCLDY    48  34  59 S5        30.12R
* LAUREL APT   CLEAR     45  30  56 N/A        N/A
* ROUNDUP APT  PTCLDY    45  34  65 N/A        N/A
* ALZADA       N/A       43  30  60 E2         N/A
* HYSHAM       N/A       48  29  48 E1         N/A
* LAME DEER    N/A       47  30  52 SE4        N/A
* REED POINT   N/A       36  34  92 N/A        N/A
* ROSCOE HILL  N/A       43  32  65 VRB2       N/A
$$

REGIONAL REPORTS...DAKOTAS
CITY           SKY/WX    TMP DP  RH WIND       PRES   REMARKS
WILLISTON      MOCLDY    45  27  49 W6        30.07R
DICKINSON      CLOUDY    46  32  58 W7        30.09R
BEACH          N/A       46  32  58 SW3       30.12R
CROSBY         CLEAR     39  28  65 W12       30.05S WCI  32
TIOGA          CLEAR     32  30  92 W5        30.08S WCI  27
BISMARCK       CLOUDY    46  30  54 NW5       30.08R
GRAND FORKS    CLEAR     46  36  68 W8        29.95R
FARGO          PTCLDY    45  30  56 W10       29.98R
BUFFALO SD     MOCLDY    50  32  50 W5        30.07R
RAPID CITY     CLEAR     43  32  65 NW8       30.15R
$$

REGIONAL REPORTS...WYOMING/IDAHO/WASHINGTON
CITY           SKY/WX    TMP DP  RH WIND       PRES   REMARKS
GILLETTE       CLEAR     32  28  85 SW5       30.15R WCI  27
SHERIDAN       CLEAR     36  28  73 CALM      30.13F
CODY           PTCLDY    37  32  82 CALM      30.11F
YELLOWSTONE LA CLEAR     28  25  89 NW3       30.28S
SALMON         CLOUDY    36  36 100 CALM      30.09F VSB 1/2
MULLAN PASS    FOG       36  36 100 S10G18    30.00S VSB M1/4 WCI  29
SAND POINT     LGT RAIN  46  39  77 N12       30.00F
SPOKANE        CLOUDY    46  43  89 NE8       29.93F

$$




USA.gov is the U.S. government's official web portal to all federal, state and local government web resources and services.